Location: Ferma
(41.9500°N, 44.5167°E)
Time: 12:04:29
(UTC+00:00)

NOSS 2-3 (D) - Visible Passes

Search period start: 29 May 2022 00:00
Search period end: 08 June 2022 00:00
Orbit: 536 x 1674 km, 63.3° (Epoch: 22 May)

Date Brightness Start Highest point End Pass type
(mag) Time Alt. Az. Time Alt. Az. Time Alt. Az.
29 May 5.9 18:29:25 10° NNW 18:34:58 34° NE 18:40:40 15° ESE visible
29 May 5.0 20:19:34 10° NW 20:26:08 63° WSW 20:28:04 50° S visible
29 May 6.8 22:13:39 10° W 22:15:28 12° W 22:15:28 12° W visible
30 May 6.2 17:44:45 10° NNW 17:49:34 24° NE 17:55:25 10° E visible
30 May 4.8 19:34:29 10° NW 19:41:00 88° NE 19:44:12 41° SE visible
30 May 6.4 21:26:30 10° WNW 21:31:36 21° WSW 21:31:36 21° WSW visible
31 May 6.5 17:00:13 10° N 17:04:00 17° NNE 17:08:23 10° ENE visible
31 May 5.1 18:49:33 10° NNW 18:55:50 61° NE 19:00:23 27° ESE visible
31 May 5.8 20:40:35 10° NW 20:46:41 33° WSW 20:47:47 32° SW visible
01 Jun 5.6 18:04:43 10° NNW 18:10:35 42° NE 18:16:37 16° ESE visible
01 Jun 5.3 19:55:09 10° NW 20:01:38 50° WSW 20:04:02 39° SSW visible
02 Jun 6.0 17:19:58 10° NNW 17:25:15 29° NE 17:31:50 10° E visible
02 Jun 4.9 19:09:57 10° NW 19:16:32 75° WSW 19:20:19 35° SSE visible
02 Jun 6.7 21:02:53 10° WNW 21:07:02 16° WSW 21:07:43 16° WSW visible
03 Jun 4.9 18:24:56 10° NNW 18:31:22 76° NE 18:36:39 25° SE visible
03 Jun 6.3 20:16:28 10° WNW 20:22:06 26° WSW 20:24:04 23° SW visible
04 Jun 5.3 17:40:01 10° NNW 17:46:10 52° NE 17:53:02 14° ESE visible
04 Jun 5.7 19:30:47 10° NW 19:37:05 39° WSW 19:40:28 28° SSW visible
05 Jun 5.7 16:55:14 10° NNW 17:00:52 35° NE 17:08:05 10° ESE visible
05 Jun 5.2 18:45:27 10° NW 18:52:00 59° WSW 18:56:54 26° S visible
05 Jun 7.1 20:40:14 10° W 20:42:20 11° WSW 20:44:19 10° WSW visible
06 Jun 4.9 18:00:20 10° NW 18:06:52 87° SW 18:13:23 19° SSE visible
06 Jun 6.7 19:52:32 10° WNW 19:57:28 20° WSW 20:00:49 15° SW visible
07 Jun 5.1 17:15:21 10° NNW 17:21:40 65° NE 17:29:56 10° SE visible
07 Jun 6.2 19:06:31 10° WNW 19:12:30 31° WSW 19:17:22 18° SSW visible
